TimeCDT,TemperatureF,Dew PointF,Humidity,Sea Level PressureIn,VisibilityMPH,Wind Direction,Wind SpeedMPH,Gust SpeedMPH,PrecipitationIn,Events,Conditions,WindDirDegrees,DateUTC
12:51 AM,60.1,53.1,78,29.70,9.0,ESE,5.8,-,N/A,,Clear,110,2013-03-18 05:51:00
1:51 AM,59.0,54.0,83,29.72,8.0,South,10.4,-,N/A,,Clear,190,2013-03-18 06:51:00
2:51 AM,63.0,60.1,90,29.71,6.0,South,4.6,-,N/A,,Clear,190,2013-03-18 07:51:00
3:51 AM,64.0,61.0,90,29.69,4.0,South,12.7,-,N/A,,Scattered Clouds,190,2013-03-18 08:51:00
4:00 AM,64.4,62.6,94,29.71,4.0,South,12.7,-,N/A,,Mostly Cloudy,190,2013-03-18 09:00:00
4:51 AM,66.0,63.0,90,29.70,4.0,South,11.5,-,N/A,,Overcast,190,2013-03-18 09:51:00
5:51 AM,66.0,63.0,90,29.71,4.0,South,9.2,-,N/A,,Overcast,180,2013-03-18 10:51:00
6:51 AM,66.9,62.1,84,29.71,5.0,South,11.5,-,N/A,,Haze,180,2013-03-18 11:51:00
7:51 AM,66.9,62.1,84,29.73,3.0,SSW,10.4,-,N/A,,Haze,200,2013-03-18 12:51:00
8:51 AM,68.0,63.0,84,29.74,3.0,South,11.5,-,N/A,,Haze,190,2013-03-18 13:51:00
8:58 AM,68.0,62.6,83,29.76,3.0,SSW,11.5,-,N/A,,Haze,200,2013-03-18 13:58:00
9:51 AM,71.1,63.0,75,29.79,4.0,SW,8.1,-,N/A,,Haze,230,2013-03-18 14:51:00
10:14 AM,71.6,64.4,78,29.81,4.0,SW,8.1,-,N/A,,Haze,220,2013-03-18 15:14:00
10:51 AM,73.0,62.1,68,29.79,5.0,Variable,6.9,-,N/A,,Haze,0,2013-03-18 15:51:00
11:51 AM,77.0,57.9,52,29.81,9.0,NNW,13.8,21.9,N/A,,Clear,330,2013-03-18 16:51:00
12:51 PM,75.9,54.0,46,29.83,10.0,NNW,17.3,-,N/A,,Clear,340,2013-03-18 17:51:00
1:51 PM,75.9,51.1,42,29.83,10.0,NNE,15.0,23.0,N/A,,Clear,20,2013-03-18 18:51:00
2:51 PM,75.0,48.0,38,29.82,10.0,North,15.0,-,N/A,,Clear,360,2013-03-18 19:51:00
3:51 PM,75.9,48.9,38,29.82,10.0,North,17.3,-,N/A,,Clear,10,2013-03-18 20:51:00
4:51 PM,75.0,48.9,40,29.83,10.0,North,15.0,-,N/A,,Clear,10,2013-03-18 21:51:00
5:51 PM,73.0,48.0,41,29.85,10.0,North,17.3,21.9,N/A,,Clear,10,2013-03-18 22:51:00
6:51 PM,69.1,46.0,44,29.89,10.0,North,11.5,-,N/A,,Clear,360,2013-03-18 23:51:00
7:51 PM,64.0,46.0,52,29.91,10.0,NNE,8.1,-,N/A,,Clear,20,2013-03-19 00:51:00
8:51 PM,62.1,46.0,56,29.94,10.0,North,6.9,-,N/A,,Clear,350,2013-03-19 01:51:00
9:51 PM,57.9,45.0,62,29.97,10.0,NNE,4.6,-,N/A,,Clear,20,2013-03-19 02:51:00
10:51 PM,57.0,44.1,62,29.96,10.0,ENE,9.2,-,N/A,,Clear,60,2013-03-19 03:51:00
11:51 PM,54.0,43.0,66,29.97,10.0,NE,4.6,-,N/A,,Clear,50,2013-03-19 04:51:00